| time (UTC) | temp F | wind direction | speed MPH | gust MPH | rain 1hr in | rain 24hr in | rain mn in | humidity % | barometer mb |
| 20260510101524 | 0 | 79 | 7.0 | 15.0 | 0.00 | 0.00 | 0.00 | 1011.6 | |
| 20260510100020 | 0 | 65 | 7.0 | 22.0 | 0.00 | 0.00 | 0.00 | 1011.6 | |
| 20260510094515 | 0 | 50 | 5.0 | 16.0 | 0.00 | 0.00 | 0.00 | 1011.8 | |
| 20260510093012 | 0 | 34 | 5.0 | 13.0 | 0.00 | 0.00 | 0.00 | 1011.8 | |
| 20260510091507 | 0 | 51 | 5.0 | 18.0 | 0.00 | 0.00 | 0.00 | 1011.8 | |
| 20260510090005 | 0 | 74 | 4.0 | 15.0 | 0.00 | 0.00 | 0.00 | 1012.1 | |
| 20260510084612 | 0 | 39 | 4.0 | 13.0 | 0.00 | 0.00 | 0.00 | 1012.0 | |
| 20260510083115 | 0 | 321 | 5.0 | 15.0 | 0.00 | 0.00 | 0.00 | 1012.0 | |
| 20260510081610 | 0 | 35 | 3.0 | 14.0 | 0.00 | 0.00 | 0.00 | 1012.0 | |
| 20260510080051 | 0 | 30 | 0.0 | 0.0 | 0.00 | 0.00 | 0.00 | 1012.1 | |
| 20260510074542 | 0 | 340 | 5.0 | 16.0 | 0.00 | 0.00 | 0.00 | 1012.2 | |
| 20260510073047 | 0 | 34 | 5.0 | 13.0 | 0.00 | 0.00 | 0.00 | 1012.2 | |
| 20260510071534 | 0 | 47 | 2.0 | 11.0 | 0.00 | 0.00 | 0.00 | 1012.3 | |
| 20260510070035 | 0 | 62 | 3.0 | 12.0 | 0.00 | 0.00 | 0.00 | 1012.4 | |
| 20260510064525 | 0 | 57 | 3.0 | 11.0 | 0.00 | 0.00 | 0.00 | 1012.3 | |
| 20260510063022 | 0 | 38 | 3.0 | 12.0 | 0.00 | 0.00 | 0.00 | 1012.2 | |
| 20260510061516 | 0 | 10 | 2.0 | 11.0 | 0.00 | 0.00 | 0.00 | 1012.1 | |
| 20260510060021 | 0 | 16 | 3.0 | 12.0 | 0.00 | 0.00 | 0.00 | 1012.0 | |
| 20260510054507 | 0 | 74 | 2.0 | 11.0 | 0.00 | 0.00 | 0.00 | 1012.0 | |
| 20260510053003 | 0 | 74 | 1.0 | 9.0 | 0.00 | 0.00 | 0.00 | 1012.1 | |
| 20260510051559 | 0 | 34 | 2.0 | 8.0 | 0.00 | 0.00 | 0.00 | 1012.0 | |
| 20260510050054 | 0 | 337 | 3.0 | 8.0 | 0.00 | 0.00 | 0.00 | 1011.9 | |
| 20260510044550 | 0 | 80 | 1.0 | 9.0 | 0.00 | 0.00 | 0.00 | 1011.8 | |
| 20260510043046 | 0 | 327 | 0.0 | 4.0 | 0.00 | 0.00 | 0.00 | 1011.8 | |
| 20260510041541 | 0 | 332 | 1.0 | 6.0 | 0.00 | 0.00 | 0.00 | 1012.0 | |
| 20260510040037 | 0 | 36 | 2.0 | 8.0 | 0.00 | 0.00 | 0.00 | 1012.1 | |
| 20260510034532 | 0 | 39 | 2.0 | 8.0 | 0.00 | 0.00 | 0.00 | 1012.1 | |
| 20260510033027 | 0 | 346 | 2.0 | 6.0 | 0.00 | 0.00 | 0.00 | 1012.3 | |
| 20260510031522 | 0 | 335 | 2.0 | 6.0 | 0.00 | 0.00 | 0.00 | 1012.3 | |
| 20260510030017 | 0 | 327 | 0.0 | 5.0 | 0.00 | 0.00 | 0.00 | 1012.4 | |
| 20260510024515 | 0 | 339 | 1.0 | 4.0 | 0.00 | 0.00 | 0.00 | 1012.3 | |
| 20260510023009 | 0 | 329 | 1.0 | 4.0 | 0.00 | 0.00 | 0.00 | 1012.3 | |
| 20260510021505 | 0 | 338 | 0.0 | 0.0 | 0.00 | 0.00 | 0.00 | 1012.2 | |
| 20260510020100 | 0 | 332 | 0.0 | 0.0 | 0.00 | 0.00 | 0.00 | 1012.3 | |
| 20260510014600 | 0 | 311 | 0.0 | 3.0 | 0.00 | 0.00 | 0.00 | 1012.5 | |
| 20260510013106 | 0 | 338 | 1.0 | 4.0 | 0.00 | 0.00 | 0.00 | 1012.2 | |
| 20260510011547 | 0 | 340 | 0.0 | 2.0 | 0.00 | 0.00 | 0.00 | 1012.4 | |
| 20260510010043 | 0 | 11 | 2.0 | 6.0 | 0.00 | 0.00 | 0.00 | 1012.4 | |
| 20260510004539 | 0 | 347 | 2.0 | 5.0 | 0.00 | 0.00 | 0.00 | 1012.3 | |
| 20260510003034 | 0 | 13 | 2.0 | 10.0 | 0.00 | 0.00 | 0.00 | 1012.4 | |
| 20260510001530 | 0 | 38 | 0.0 | 4.0 | 0.00 | 0.00 | 0.00 | 1012.4 | |
| 20260510000025 | 0 | 46 | 2.0 | 5.0 | 0.00 | 0.00 | 0.00 | 1012.6 | |
| 20260509234533 | 0 | 45 | 1.0 | 4.0 | 0.00 | 0.00 | 0.00 | 1012.5 | |
| 20260509233017 | 0 | 81 | 1.0 | 6.0 | 0.00 | 0.00 | 0.00 | 1012.4 | |
| 20260509231512 | 0 | 47 | 0.0 | 5.0 | 0.00 | 0.00 | 0.00 | 1012.5 | |
| 20260509230008 | 0 | 31 | 1.0 | 6.0 | 0.00 | 0.00 | 0.00 | 1012.6 | |
| 20260509224507 | 0 | 19 | 1.0 | 4.0 | 0.00 | 0.00 | 0.00 | 1012.5 | |
| 20260509223006 | 0 | 5 | 0.0 | 4.0 | 0.00 | 0.00 | 0.00 | 1012.4 | |
| 20260509221507 | 0 | 35 | 2.0 | 6.0 | 0.00 | 0.00 | 0.00 | 1012.3 | |
| 20260509220011 | 0 | 42 | 3.0 | 8.0 | 0.00 | 0.00 | 0.00 | 1012.4 | |
| 20260509214505 | 0 | 34 | 2.0 | 7.0 | 0.00 | 0.00 | 0.00 | 1012.5 | |
| 20260509213005 | 0 | 360 | 4.0 | 9.0 | 0.00 | 0.00 | 0.00 | 1012.5 | |
| 20260509211504 | 0 | 62 | 3.0 | 11.0 | 0.00 | 0.00 | 0.00 | 1012.4 | |
| 20260509210004 | 0 | 349 | 4.0 | 10.0 | 0.00 | 0.00 | 0.00 | 1012.3 | |
| 20260509204504 | 0 | 360 | 5.0 | 10.0 | 0.00 | 0.00 | 0.00 | 1012.1 | |
| 20260509203002 | 0 | 30 | 3.0 | 8.0 | 0.00 | 0.00 | 0.00 | 1012.0 | |
| 20260509201500 | 0 | 346 | 3.0 | 10.0 | 0.00 | 0.00 | 0.00 | 1012.1 | |
| 20260509200109 | 0 | 48 | 3.0 | 7.0 | 0.00 | 0.00 | 0.00 | 1012.2 | |
| 20260509194554 | 0 | 34 | 3.0 | 8.0 | 0.00 | 0.00 | 0.00 | 1012.0 | |
| 20260509193050 | 0 | 30 | 2.0 | 4.0 | 0.00 | 0.00 | 0.00 | 1011.9 | |
| 20260509191545 | 0 | 21 | 2.0 | 5.0 | 0.00 | 0.00 | 0.00 | 1011.7 | |
| 20260509190052 | 0 | 5 | 3.0 | 6.0 | 0.00 | 0.00 | 0.00 | 1011.8 | |
| 20260509184540 | 0 | 338 | 3.0 | 9.0 | 0.00 | 0.00 | 0.00 | 1011.8 | |
| 20260509183032 | 0 | 360 | 3.0 | 11.0 | 0.00 | 0.00 | 0.00 | 1011.7 | |
| 20260509181526 | 0 | 68 | 3.0 | 9.0 | 0.00 | 0.00 | 0.00 | 1011.6 | |
| 20260509180023 | 0 | 42 | 4.0 | 15.0 | 0.00 | 0.00 | 0.00 | 1011.5 | |
| 20260509174518 | 0 | 45 | 4.0 | 11.0 | 0.00 | 0.00 | 0.00 | 1011.5 | |
| 20260509173013 | 0 | 59 | 4.0 | 10.0 | 0.00 | 0.00 | 0.00 | 1011.4 | |
| 20260509171511 | 0 | 51 | 5.0 | 14.0 | 0.00 | 0.00 | 0.00 | 1011.3 | |
| 20260509170004 | 0 | 42 | 6.0 | 14.0 | 0.00 | 0.00 | 0.00 | 1011.4 | |
| 20260509164502 | 0 | 40 | 3.0 | 13.0 | 0.00 | 0.00 | 0.00 | 1011.6 | |
| 20260509163110 | 0 | 40 | 5.0 | 13.0 | 0.00 | 0.00 | 0.00 | 1011.5 | |
| 20260509161601 | 0 | 45 | 4.0 | 14.0 | 0.00 | 0.00 | 0.00 | 1011.6 | |
| 20260509160055 | 0 | 22 | 6.0 | 15.0 | 0.00 | 0.00 | 0.00 | 1011.7 | |
| 20260509154551 | 0 | 55 | 6.0 | 14.0 | 0.00 | 0.00 | 0.00 | 1011.8 | |
| 20260509153046 | 0 | 12 | 4.0 | 11.0 | 0.00 | 0.00 | 0.00 | 1011.9 | |
| 20260509151542 | 0 | 54 | 3.0 | 11.0 | 0.00 | 0.00 | 0.00 | 1012.1 | |
| 20260509150037 | 0 | 28 | 4.0 | 10.0 | 0.00 | 0.00 | 0.00 | 1012.1 | |
| 20260509144535 | 0 | 355 | 3.0 | 12.0 | 0.00 | 0.00 | 0.00 | 1011.8 | |
| 20260509143029 | 0 | 60 | 4.0 | 12.0 | 0.00 | 0.00 | 0.00 | 1011.7 | |
| 20260509141536 | 0 | 56 | 5.0 | 11.0 | 0.00 | 0.00 | 0.00 | 1011.5 | |
| 20260509140021 | 0 | 344 | 6.0 | 12.0 | 0.00 | 0.00 | 0.00 | 1011.6 | |
| 20260509134519 | 0 | 32 | 4.0 | 12.0 | 0.00 | 0.00 | 0.00 | 1011.7 | |
| 20260509133015 | 0 | 57 | 5.0 | 16.0 | 0.00 | 0.00 | 0.00 | 1011.7 | |
| 20260509131510 | 0 | 59 | 4.0 | 13.0 | 0.00 | 0.00 | 0.00 | 1011.7 | |
| 20260509130005 | 0 | 55 | 6.0 | 14.0 | 0.00 | 0.00 | 0.00 | 1011.9 | |
| 20260509124500 | 0 | 50 | 5.0 | 15.0 | 0.00 | 0.00 | 0.00 | 1011.9 | |
| 20260509123100 | 0 | 39 | 4.0 | 12.0 | 0.00 | 0.00 | 0.00 | 1012.0 | |
| 20260509121552 | 0 | 58 | 2.0 | 9.0 | 0.00 | 0.00 | 0.00 | 1012.2 | |
| 20260509120048 | 0 | 19 | 6.0 | 12.0 | 0.00 | 0.00 | 0.00 | 1012.2 | |
| 20260509114544 | 0 | 54 | 3.0 | 9.0 | 0.00 | 0.00 | 0.00 | 1012.4 | |
| 20260509113050 | 0 | 59 | 4.0 | 11.0 | 0.00 | 0.00 | 0.00 | 1012.5 | |
| 20260509111544 | 0 | 331 | 3.0 | 9.0 | 0.00 | 0.00 | 0.00 | 1012.6 | |
| 20260509110031 | 0 | 32 | 5.0 | 11.0 | 0.00 | 0.00 | 0.00 | 1012.8 | |
| 20260509104529 | 0 | 57 | 3.0 | 11.0 | 0.00 | 0.00 | 0.00 | 1012.8 | |
| 20260509103022 | 0 | 23 | 6.0 | 16.0 | 0.00 | 0.00 | 0.00 | 1012.9 |